+ View the NASA Portal
+ Center for Near-Earth Object Studies
IMPORTANT:
The SSD Announcement email list is now available. Major changes are coming in the near future, including possible hostname and/or URL changes. To be notified of such changes, subscribe to this email list.
Please visit
this page
for more details.
Don't show this message again
JPL Small-Body Database Browser
Search:
[
help
]
214730 (2006 TN24)
Classification:
Main-belt Asteroid
SPK-ID:
2214730
[
Ephemeris
|
Orbit Diagram
|
Orbital Elements
|
Mission Design
|
Physical Parameters
|
Discovery Circumstances
|
Close-Approach Data
]
[ show orbit diagram ]
Orbital Elements at Epoch 2458600.5 (2019-Apr-27.0) TDB
Reference:
JPL 12
(heliocentric ecliptic J2000)
Element
Value
Uncertainty (1-sigma)
Units
e
.04476028155463584
6.7217e-08
a
3.058591969267772
4.076e-08
au
q
2.921688531562598
2.104e-07
au
i
10.03048974607283
6.1736e-06
deg
node
16.19802510783106
3.9076e-05
deg
peri
307.6148470284254
7.95e-05
deg
M
184.3232469693107
7.076e-05
deg
t
p
2459553.938177411605
(2021-Dec-05.43817741)
0.00038822
TDB
period
1953.802867748909
5.35
3.9056e-05
1.069e-07
d
yr
n
.1842560505680786
3.6832e-09
deg/d
Q
3.195495406972945
4.2585e-08
au
Orbit Determination Parameters
# obs. used (total)
221
data-arc span
8568 days (23.46 yr)
first obs. used
1995-09-19
last obs. used
2019-03-05
planetary ephem.
DE431
SB-pert. ephem.
SB431-N16
condition code
0
norm. resid. RMS
.46393
source
ORB
producer
Otto Matic
solution date
2019-Jul-14 08:12:20
Additional Information
Earth MOID
= 1.9231 au
Jupiter MOID
= 1.98139 au
T_jup
= 3.210
[ show covariance matrix ]
[
Ephemeris
|
Orbit Diagram
|
Orbital Elements
|
Mission Design
|
Physical Parameters
|
Discovery Circumstances
|
Close-Approach Data
]
Physical Parameter Table
Parameter
Symbol
Value
Units
Sigma
Reference
Notes
absolute magnitude
H
15.6
n/a
MPO433404
214730 (2006 TN24)
Discovered 2006-Oct-12 by Spacewatch at Kitt Peak
Reference:
20090509/Numbers.arc
Last Updated:
2009-05-11
[ show close-approach data ]
[
Ephemeris
|
Orbit Diagram
|
Orbital Elements
|
Mission Design
|
Physical Parameters
|
Discovery Circumstances
|
Close-Approach Data
]
2019-Dec-14 03:23 UT
(server date/time)
Site Manager:
Ryan S. Park
Webmaster
:
Alan B. Chamberlin